www.pogodaiklimat.ru

Погода и климат >> Архив погоды >> Россия >> Магаданская область >> Совхоз Эльген


ПОГОДА в Совхозе Эльген

  • Прогноз погоды в Совхозе Эльген
  • Монитор погоды в Совхозе Эльген

АРХИВ ПОГОДЫ в Совхозе Эльген

Время (UTC), дата Ветер
(напр.,м/с)
 
Видим.   Явления Облачность Т
(С)
Тd
(С)
f
(%)
Тe
(С)
Тes
(С)
Комфортность P
(гПа)
Po
(гПа)
Тmin
(С)
Tmax
(С)
R
(мм)
R24
(мм)
S
(см)
18 16.07 штиль 0 н/о н/о +5.1 +4.4 95 +4 +4 1009.5 971.7
21 16.07 З 1 н/о н/о +8.1 +7.4 95 +7 +7 1008.3 971.0 +4.6
00 17.07 З 1 н/о н/о +11.3 +10.0 92 +11 +11 1007.0 970.2
03 17.07 Ю 3 50 км 9/6 1000 м
[Sc Ac trans]
+15.9 +9.2 64 +15 +18 1005.2 969.0
06 17.07 ЮВ 3 н/о н/о +18.0 +9.4 57 +18 +18 1003.8 967.9
09 17.07 ЮВ 2 50 км 4/3 1000 м
[Sc Ac trans]
+17.1 +9.0 59 +17 +18 1003.2 967.2 +18.1 1
12 17.07 СВ 1 н/о н/о +8.5 +7.6 94 +8 +8 1004.7 967.6
15 17.07 СВ 1 50 км 4/3 1000 м
[Sc Ac trans]
+5.6 +4.8 95 +4 +4 1005.0 967.5
21 17.07 ЮВ 2 50 км 4/0
[Ci fib]
+13.3 +8.8 74 +13 +16 1002.6 966.2 +4.0
00 18.07 ЮВ 4 н/о н/о +18.7 +10.9 60 +19 +19 1000.4 964.7
03 18.07 Ю 5 50 км 6/3 600 м
[Cu hum Ac trans Ci fib]
+23.1 +11.6 48 +25 +29 комфорт 997.7 962.7
06 18.07 Ю 2 н/о н/о +23.6 +11.5 47 +25 +25 комфорт 996.7 961.8
09 18.07 СЗ 1 50 км 10/6 1000 м
[Sc Ac As]
+21.2 +11.7 55 +23 +23 комфорт 998.1 962.8 +26.0
12 18.07 СЗ 2 н/о н/о +15.6 +12.0 79 +16 +16 1001.9 965.8
15 18.07 СЗ 2 50 км 10/6 1000 м
[Sc Ac As]
+10.7 +6.8 77 +9 +9 1005.7 968.8
18 18.07 СЗ 2 н/о н/о +8.7 +5.2 79 +7 +7 1007.7 970.5
21 18.07 СЗ 2 20 км слаб. морось 10/10 600 м
[Frnb Ns]
+7.0 +6.0 93 +5 +5 1009.7 972.1 +7.0 0.3
00 19.07 СЗ 2 20 км слаб. морось н/о +7.6 +6.6 93 +5 +5 1010.5 973.0
03 19.07 СЗ 2 10 км дым {морось} 10/8 1000 м
[Sc Ac As]
+8.7 +7.1 90 +7 +7 1011.1 973.8
06 19.07 СЗ 2 н/о н/о +9.7 +5.8 77 +8 +8 1011.0 973.8
09 19.07 СЗ 1 50 км 10/8 1000 м
[Sc Ac As]
+8.3 +4.6 77 +8 +8 1011.8 974.3 +10.0 0.9
12 19.07 СЗ 1 н/о н/о +5.7 +3.5 86 +5 +5 1013.3 975.5
15 19.07 СЗ 1 50 км 10/8 1000 м
[Sc Ac As]
+4.6 +3.5 93 +3 +3 1013.8 975.7
18 19.07 СЗ 3 н/о н/о +2.7 +1.9 94 -2 -2 1014.7 976.4
21 19.07 СЗ 2 50 км в посл. час ливневой дождь 10/8 1000 м
[Sc Ac As]
+3.3 +2.4 94 0 0 1015.9 977.6 +1.6 8
00 20.07 С 2 н/о н/о +7.2 +3.6 78 +5 +5 1015.0 977.3
03 20.07 СЗ 1 50 км 10/8 1000 м
[Sc Ac As]
+9.6 +3.2 64 +9 +10 1014.4 977.0
06 20.07 СЗ 1 н/о н/о +9.0 +4.2 72 +9 +9 1014.5 977.1
09 20.07 СЗ 2 50 км 10/8 1000 м
[Sc Ac As]
+7.0 +4.3 83 +5 +5 1015.5 977.7 +9.7 0.7
12 20.07 СЗ 2 н/о н/о +5.5 +2.1 79 +3 +3 1016.4 978.4
15 20.07 СЗ 1 50 км 10/6 1000 м
[St Ac As]
+4.7 +1.8 81 +3 +3 1016.3 978.2
18 20.07 СЗ 1 н/о н/о +4.4 +2.0 84 +3 +3 1015.8 977.7
21 20.07 СЗ 1 50 км 10/8 1000 м
[Sc Ac As]
+7.0 +3.2 77 +6 +6 1015.4 977.7 +4.2
00 21.07 ЮЗ 1 н/о н/о +10.9 +3.2 59 +11 +11 1013.7 976.5
03 21.07 З 2 50 км 8/6 1000 м
[Sc Ac trans Ci fib]
+15.4 +3.4 45 +15 +19 1011.0 974.5
06 21.07 СЗ 3 н/о н/о +17.4 +1.9 35 +17 +17 1009.1 972.9
09 21.07 З 1 50 км 6/3 1000 м
[Sc Ac trans Ci fib]
+16.6 +3.4 41 +18 +18 1008.7 972.4 +17.9
12 21.07 ЮВ 1 н/о н/о +5.9 +3.9 87 +5 +5 1009.3 971.6
15 21.07 штиль 0 50 км 4/0
[Ac trans]
+0.6 -0.3 94 -1 -1 1009.2 970.8
18 21.07 штиль 0 н/о н/о +0.1 -0.5 96 -1 -1 1008.6 970.1
21 21.07 СЗ 1 50 км 10/6 1000 м
[Sc Ac As]
+5.6 +2.9 83 +4 +5 1008.1 970.4 -0.6
00 22.07 СЗ 1 н/о н/о +5.0 +3.7 91 +4 +4 1011.3 973.5
03 22.07 СЗ 1 50 км {ливн. осадки} 10/8 1000 м
[Sc Ac As]
+7.8 +3.7 75 +7 +8 1013.3 975.7
06 22.07 СЗ 1 н/о н/о +8.3 +0.2 57 +8 +8 1014.6 977.0
09 22.07 З 1 50 км 6/3 1000 м
[Sc Ac As]
+9.2 +0.3 54 +9 +9 1014.3 976.8 +9.6 4
12 22.07 С 3 н/о н/о +5.1 +1.4 77 +2 +2 1016.1 978.0
15 22.07 З 1 н/о н/о +2.3 +0.1 85 +1 +1 1018.4 979.9
18 22.07 СЗ 2 н/о н/о +1.9 -0.8 82 -1 -1 1019.0 980.4
21 22.07 СЗ 3 50 км 8/5 1000 м
[Sc Ac trans Ci fib]
+5.0 +0.1 71 +2 +3 1019.0 980.8 +1.4
00 23.07 СЗ 3 н/о н/о +7.6 0.0 59 +5 +5 1018.8 981.0
03 23.07 С 2 50 км 8/6 1000 м
[Sc Ac trans]
+10.7 -0.2 47 +10 +13 1017.3 979.9
06 23.07 СЗ 3 н/о н/о +11.6 -1.4 40 +10 +10 1016.2 979.0
09 23.07 СЗ 1 50 км 10/8 1000 м
[Sc Ac As]
+10.8 +0.5 49 +11 +11 1016.2 978.9 +12.4
12 23.07 штиль 0 н/о н/о +1.3 +0.1 92 0 0 1017.6 979.0
15 23.07 штиль 0 н/о н/о -2.6 -3.3 95 -4 -4 1017.2 978.0

 

Местоположение метеостанции Совхоз Эльген (Магаданская область, Россия): широта 62.80 долгота 150.60 высота над уровнем моря 312 м.

В архиве по умолчанию представлена погода в Совхозе Эльген за последнюю неделю. Архивные данные за месяц целиком и за предыдущие месяцы, начиная с января 2011 года, Вы можете получить, выбрав интересующий диапазон дат из раскрывающегося списка и нажав кнопку "Ввод!".


*Определитесь, кто Вы:
робот инопланетянин человек

Внимание! Время в таблицах - всемирное. Для получения местного времени необходимо прибавить поправку, которая равна 11 ч.

Смотрите также архив погоды в соседних городах и на ближайших метеорологических станциях:

Погода в Ягодной (Магаданская область, Россия) (60 км)
Погода в Усть-Бохапче (Магаданская область, Россия) (78 км)
Погода в Сеймчане (Магаданская область, Россия) (92 км)
Погода в Среднекане (Магаданская область, Россия) (95 км)
Погода на Озере Джека Лондона (Магаданская область, Россия) (98 км)
Погода в Сусумане (Магаданская область, Россия) (127 км)
Погода в Колымской (Магаданская область, Россия) (188 км)
Погода в Усть-Омчуге (Магаданская область, Россия) (194 км)
Погода в Талой (Магаданская область, Россия) (206 км)
Погода в Балыгычане (Магаданская область, Россия) (214 км)

Пояснения к столбцам:

Ветер - указаны скорость ветра в м/с - средняя за 10 мин, порывы в срок и между сроками (в фигурных скобках) и направление, откуда дует ветер: С - северный, СВ - северо-восточный, В - восточный, ЮВ - юго-восточный, Ю - южный, ЮЗ - юго-западный, З - западный, СЗ - северо-западный.
Видимость - горизонтальная дальность видимости в метрах или километрах. При видимости от 1 до 10 км при отсутствии осадков обычно наблюдается дымка, при ухудшении видимости до 1 км и менее - туман. В сухую погоду видимость может ухудшаться дымом, пылью или мглою.
Явления - указаны атмосферные явления, наблюдавшиеся в срок или в последний час перед сроком; фигурными скобками обозначены явления, наблюдавшиеся между сроками (за 1-3 часа до срока); квадратными скобками обозначены град или гололедные отложения с указанием их диаметра в мм.
Облачность - указаны через наклонную черту общая и нижняя облачность в баллах и высота нижней границы облаков в метрах; квадратными скобками обозначены формы облаков: Ci - перистые, Cs - перисто-слоистые, Cc - перисто-кучевые, Ac - высококучевые, As - высокослоистые, Sc - слоисто-кучевые, Ns - слоисто-дождевые, Cu - кучевые, Cb - кучево-дождевые. Подробнее классификацию облаков см. в Атласе облаков (PDF).
T - Температура воздуха - температура, измеренная на высоте 2 м над землей.
Td - Температура точки росы - температура, при понижении до которой содержащийся в воздухе водяной пар достигнет насыщения.
f - Относительная влажность воздуха - влажноcть воздуха, измеренная на высоте 2 м над землей.
Te - Эффективная температура - температура, которую ощущает одетый по сезону человек в тени. Характеристика душности погоды. При расчете учитывается влияние влажности воздуха и скорости ветра на теплоощущения человека.
Tes - Эффективная температура на солнце - температура, которую ощущает человек, с поправкой на солнечный нагрев. Характеристика знойности погоды. Зависит от высоты солнца над горизонтом, облачности и скорости ветра. Ночью, в пасмурную погоду, а также при ветре 12 м/с и более поправка равна нулю.
P - Атмосферное давление - приведенное к уровню моря атмосферное давление.
Po - Атмосферное давление - измеренное на уровне метеостанции атмосферное давление.
Tmin - Минимальная температура - минимум температуры воздуха на высоте 2 м над землей.
Tmax - Максимальная температура - максимум температуры воздуха на высоте 2 м над землей.
R - Количество осадков - Количество выпавших осадков за период времени, мм. При наведении курсора мыши на число - период времени, за который выпало указанное количество осадков.
R24 - Количество осадков - Количество выпавших осадков за 24 часа, мм.
S - Снежный покров - Высота снежного покрова, см. При наведении курсора мыши на число - состояние снежного покрова и степень покрытия местности в баллах.